Miscellaneous Local Product
Issued by NWS North Platte, NE

Home | Current Version | Previous Version | Text Only | Print | Product List | Glossary On
Versions: 1 2 3 4 5 6 7 8 9 10 11 12 13 14 15 16 17 18 19 20 21 22 23 24 25 26 27 28 29 30 31 32 33 34 35 36 37 38 39 40 41 42 43 44 45 46 47 48 49 50
000
AXUS43 KLBF 300710
MISLBF


WESTERN AND NORTH CENTRAL NEBRASKA HOURLY WEATHER ROUNDUP
NATIONAL WEATHER SERVICE NORTH PLATTE NE
200 AM CDT SUN APR 30 2017

NOTE: "FAIR" INDICATES FEW OR NO CLOUDS BELOW 12,000 FEET WITH NO
SIGNIFICANT WEATHER AND/OR OBSTRUCTIONS TO VISIBILITY.

NOTE: STATIONS NOT REPORTING VARIABLES SUCH AS SKY/WEATHER OR
PRESSURE ARE PROVIDED BY RAWS AND APRS NETWORKS AND ARE NOT UNDER
NATIONAL WEATHER SERVICE QUALITY CONTROL.

...OBSERVATIONS IN AND NEAR THE EASTERN PANHANDLE OF NEBRASKA...

CITY           SKY/WX    TMP DP  RH WIND       PRES   REMARKS
PINE RIDGE     CLEAR     28  24  85 CALM      30.15F
CHADRON        CLEAR     31  25  78 SW3       30.15F
ALLIANCE       CLEAR     30  25  81 N9        30.10F WCI  22
SIDNEY         CLOUDY    33  25  72 N13       30.06F WCI  24
CRESCENT LAKE    N/A     35  26  69 N7          N/A  WCI  29
$$

...OBSERVATIONS IN NORTHERN NEBRASKA AND FAR SOUTHERN SOUTH DAKOTA...

CITY           SKY/WX    TMP DP  RH WIND       PRES   REMARKS
WINNER         FAIR      41  27  57 NE7       30.11F
VALENTINE      MOCLDY    43  22  43 N8        30.10F
THEDFORD       MOCLDY    41  28  59 N9        30.04F
AINSWORTH      CLOUDY    42  27  56 NE9       30.07F
O`NEILL        CLOUDY    44  24  46 N10       30.05F
ORD            CLOUDY    39  31  72 NE16G26   29.98  WCI  30
BROKEN BOW     CLOUDY    41  28  60 NE22G29   29.97
VALENTINE NWR    N/A     41  24  50 NE6         N/A
HALSEY           N/A     42  22  45 NE9G21      N/A
BUTTE            N/A     43  27  53 CALM        N/A
CHAMBERS         N/A     43  23  45 CALM        N/A
EWING            N/A     44  30  58 NE8         N/A
$$

...OBSERVATIONS IN SOUTHWEST NEBRASKA AND FAR NORTHEAST COLORADO...

CITY           SKY/WX    TMP DP  RH WIND       PRES   REMARKS
HOLYOKE        FAIR      41  28  60 N14       30.03F
IMPERIAL       CLOUDY    39  24  55 N18G28    29.98  WCI  30
OGALLALA       MOCLDY    42  27  56 N9        30.04F
NORTH PLATTE   CLOUDY    42  24  49 N17G24    30.00F
MCCOOK         LGT SNOW  34  33  96 N23G30    29.92F FOG     WCI  22
LEXINGTON      CLOUDY    39  31  72 N22G33    29.96F WCI  28
STAPLETON        N/A     40  26  57 NE3G12      N/A
GOTHENBURG       N/A     39  27  62 NE12        N/A  WCI  32
CALLAWAY         N/A     40  27  59 NE23        N/A  WCI  30
$$

...OBSERVATIONS IN CENTRAL LINCOLN COUNTY AREA...

CITY           SKY/WX    TMP DP  RH WIND       PRES   REMARKS
N.P. AIRPORT   CLOUDY    42  24  49 N17G24    30.00F
N.P. DOWNTOWN    N/A     41  28  58 N8G15       N/A
N.P. SOUTHEAST   N/A     41  26  54 N7G14       N/A
N.P. HILLCREST   N/A     41  28  59 NE20G28     N/A
$$

...SOME OBSERVATIONS FROM AROUND THE REGION...

CITY           SKY/WX    TMP DP  RH WIND       PRES   REMARKS
DENVER         CLOUDY    30  22  72 NW13      30.10F WCI  20
LIMON          CLOUDY    29  24  82 NW24      30.01F WCI  15
ASPEN          CLOUDY    28  21  75 CALM      30.11S
LARAMIE        CLOUDY    14  11  87 SE6       30.14F WCI   5
CASPER         CLEAR     26  22  84 W7        30.17F WCI  18
CHEYENNE       CLEAR     27  15  61 NW14G21   30.11F WCI  16
SCOTTSBLUFF    CLEAR     36  25  64 N14       30.13F WCI  27
GRAND ISLAND   LGT RAIN  37  36  96 NE17G26   29.95F WCI  27
OMAHA          LGT RAIN  40  36  86 N17       29.94F FOG     WCI  31
SIOUX FALLS    CLOUDY    46  28  49 NE12      30.09F
PIERRE         CLOUDY    36  23  59 N7        30.15F WCI  30
RAPID CITY     CLEAR     31  20  63 NW6       30.15F WCI  25
BISMARCK       CLEAR     36  25  64 SE7       30.18S WCI  30
KANSAS CITY    LGT RAIN  42  41  96 N18       29.72R FOG
HILL CITY      MIX PCPN  35  34  96 N26G36    29.85  FOG     WCI  22
WICHITA        LGT RAIN  44  43  96 N18       29.63R FOG
DODGE CITY     LGT RAIN  34  33  96 N22G31    29.72R FOG     WCI  22
OKLAHOMA CITY  CLOUDY    47  46  97 NW7       29.66R
DALLAS         TSTM      56  48  74 W12G21    29.76S
AMARILLO       LGT SNOW  33  32  96 NW25G39   29.83F VSB 1   WCI  20
$$




USA.gov is the U.S. government's official web portal to all federal, state and local government web resources and services.